Regional Weather Roundup
Issued by NWS Sioux Falls, SD

Home | Current Version | Previous Version | Graphics & Text | Print | Product List | Glossary Off
Versions: 1 2 3 4 5 6 7 8 9 10 11 12 13 14 15 16 17 18 19 20 21 22 23 24 25 26 27 28 29 30 31 32 33 34 35 36 37 38 39 40 41 42 43 44 45 46 47 48 49 50

000
ASUS43 KFSD 040510
RWRFSD

WEATHER ROUNDUP FOR SE SOUTH DAKOTA/SW MINNESOTA/NW IOWA
NATIONAL WEATHER SERVICE SIOUX FALLS SD
1200 AM CDT WED MAY 04 2016

NOTE: "FAIR" INDICATES FEW OR NO CLOUDS BELOW 12,000 FEET WITH NO
SIGNIFICANT WEATHER AND OR OBSTRUCTIONS TO VISIBILITY.


SDZ038>040-050-052>070-040600-
SOUTHEAST SOUTH DAKOTA

CITY           SKY/WX    TMP DP  RH WIND       PRES   REMARKS
BROOKINGS      CLEAR     48  32  53 N9        29.93R
CHAMBERLAIN    CLEAR     56  37  48 N5        30.00R
HURON          CLEAR     50  32  50 N9        29.97R
MADISON        FAIR      50  32  50 N13       29.94R
MITCHELL       CLEAR     53  37  54 N9        29.96R
SIOUX FALLS    CLEAR     51  33  50 N9        29.92R
WINNER         FAIR      57  43  59 N5        30.02R
YANKTON        CLEAR     52  37  58 NW10      29.93R
$$

MNZ071-072-080-081-089-090-097-098-040600-
SOUTHWEST MINNESOTA

CITY           SKY/WX    TMP DP  RH WIND       PRES   REMARKS
FAIRMONT       CLEAR     55  30  38 NW14      29.81R
JACKSON        CLEAR     54  28  37 N12G17    29.85R
LUVERNE        CLEAR     54  28  37 N13G18    29.90R
MARSHALL       CLEAR     52  29  41 N13       29.90R
MONTEVIDEO     CLEAR     54  30  40 NE14G20   29.92R
PIPESTONE      CLEAR     54  27  35 N9        29.90R
REDWOOD FALLS  CLEAR     55  27  34 N10       29.86R
TRACY          CLEAR     53  31  43 N13       29.88R
WINDOM         CLEAR     52  28  40 NW13      29.85R
WORTHINGTON    CLEAR     51  34  52 N16       29.87R
$$

IAZ001>003-012>014-020>022-031-032-NEZ013-014-SDZ071-040600-
NORTHWEST IOWA

CITY           SKY/WX    TMP DP  RH WIND       PRES   REMARKS
CHEROKEE       CLEAR     53  35  50 N9        29.86R
DENISON        PTCLDY    57  45  62 N10       29.83R
ESTHERVILLE    CLEAR     52  33  48 N16       29.82R
LE MARS        CLEAR     54  36  50 N9        29.89R
ORANGE CITY    CLEAR     55  36  47 N9        29.88R
SHELDON        CLEAR     50  36  57 N13       29.87R
SIOUX CITY     CLEAR     56  37  49 N8        29.89R
SPENCER        CLEAR     54  33  45 NW15      29.84R
STORM LAKE     CLEAR     55  36  47 N15       29.85S
$$

ABBREVIATIONS USED IN REMARKS
   TC - TEMPERATURE IN CELSIUS
  WCI - WIND CHILL INDEX
   HX - HEAT INDEX
  VSB - VISIBILITY





USA.gov is the U.S. government's official web portal to all federal, state and local government web resources and services.